Regional Weather Roundup
Issued by NWS Boston, MA

Current Version | Previous Version | Text Only | Print | Product List | Glossary Off
Versions: 1 2 3 4 5 6 7 8 9 10 11 12 13 14 15 16 17 18 19 20 21 22 23 24 25 26 27
000 ASUS41 KBOX 201110 RWRBOX REGIONAL WEATHER ROUNDUP NATIONAL WEATHER SERVICE BOSTON/NORTON MA 700 AM EDT WED JUN 20 2018 NOTE: "FAIR" INDICATES FEW OR NO CLOUDS BELOW 12,000 FEET WITH NO SIGNIFICANT WEATHER AND/OR OBSTRUCTIONS TO VISIBILITY. MAZALL-201200- EASTERN MASSACHUSETTS CITY SKY/WX TMP DP RH WIND PRES REMARKS BOSTON FAIR 67 51 56 NW3 29.90S BEVERLY FAIR 60 54 80 CALM 29.90R LAWRENCE FAIR 63 53 70 SW5 29.93R BEDFORD FAIR 60 54 80 W3 29.90R BLUE HILL N/A 62 51 67 CALM 29.91R NORWOOD FAIR 61 55 81 CALM 29.91R MARSHFIELD FAIR 63 54 72 CALM 29.90R PLYMOUTH FAIR 61 55 81 CALM 29.91R TAUNTON FAIR 59 55 87 CALM 29.91R NEW BEDFORD FAIR 60 57 89 CALM 29.90R $$ MAZALL-201200- CAPE COD AND THE ISLANDS CITY SKY/WX TMP DP RH WIND PRES REMARKS FALMOUTH FAIR 63 55 77 CALM 29.91S HYANNIS FAIR 64 59 83 CALM 29.89R CHATHAM FAIR 66 58 75 CALM 29.91R PROVINCETOWN FAIR 63 58 83 W3 29.91R NANTUCKET FAIR 65 63 93 CALM 29.90R MARTHAS VNYRD FAIR 64 60 87 CALM 29.90R $$ MAZALL-201200- CENTRAL AND WESTERN MASSACHUSETTS CITY SKY/WX TMP DP RH WIND PRES REMARKS WORCESTER FAIR 64 47 53 CALM 29.93R FITCHBURG FAIR 59 54 83 CALM 29.93R ORANGE FAIR 54 52 93 CALM 29.95R SPRINGFIELD MOSUNNY 57 53 87 CALM 29.92R WESTFIELD FAIR 60 56 86 N3 29.93R NORTH ADAMS N/A N/A N/A N/A MISG 29.95R PITTSFIELD FAIR 55 53 93 CALM 29.94R $$ RIZALL-201200- RHODE ISLAND CITY SKY/WX TMP DP RH WIND PRES REMARKS PROVIDENCE FAIR 65 51 60 N3 29.92R NEWPORT FAIR 65 53 65 N3 29.91R BLOCK ISLAND FAIR 62 57 83 CALM 29.92R SMITHFIELD FAIR 63 52 67 N5 29.93R WESTERLY FAIR 63 57 81 CALM 29.92R $$ CTZALL-201200- CONNECTICUT CITY SKY/WX TMP DP RH WIND PRES REMARKS BRADLEY INTL PTSUNNY 61 55 81 CALM 29.92S HARTFORD PTSUNNY 63 55 75 CALM 29.92R BRIDGEPORT FAIR 65 53 65 N7 29.91R DANBURY SUNNY 59 57 94 CALM 29.94 GROTON FAIR 63 51 65 N6 29.91R NEW HAVEN PTSUNNY 65 54 67 N5 29.91R CHESTER FAIR 64 50 59 CALM 29.93R MERIDEN FAIR 64 53 67 NW3 29.92R WILLIMANTIC FAIR 57 53 86 CALM 29.93R OXFORD FAIR 63 51 65 NE3 29.94R $$ MEZ002-015-021-024-NHZ003-005-008-011-012-014-VTZ005-008-201200- NORTHERN NEW ENGLAND CITY SKY/WX TMP DP RH WIND PRES REMARKS PORTLAND ME FAIR 59 52 77 VRB5 29.88R BANGOR ME FAIR 60 46 59 SW5 29.83S CONCORD NH FAIR 56 52 86 CALM 29.91R MANCHESTER NH FAIR 60 51 72 CALM 29.90R NASHUA NH FAIR 58 52 80 NW3 29.92R PORTSMOUTH NH SUNNY 59 53 80 CALM 29.88R JAFFREY NH FAIR 54 52 93 CALM 29.94R KEENE NH FAIR 53 49 86 CALM 29.95R BURLINGTON VT FAIR 56 50 80 E3 29.91R MT. WASHINGTON MOSUNNY 46 32 57 W26 N/A $$ NYZ052-076-201200- EASTERN NEW YORK CITY SKY/WX TMP DP RH WIND PRES REMARKS ALBANY FAIR 62 54 74 CALM 29.94R NEW YORK CITY PTSUNNY 70 53 54 NE6 29.90S $$ ANZALL-201200- MARINE OBSERVATIONS STATION/POSITION TIME TEMP WIND PRES VSBY WAVE AIR SEA DIR/SP/G HT/PER (UTC) (F) (DEG/KT/KT) (MB) (MI) (FT/S) BOSTON BUOY 1050 62 62 280/ 6/ 8 1012.2R 1/ 7 BUZZARDS BAY 1000 63 CALM 1012.8R NANTUCKET SOUND 1050 66 65 CALM / 2 1012.5R 1 MASS BAY-STELLWA 1004 57 59 1010.5R 1/ 8 ISLE OF SHOALS 1100 57 260/ 8/ 8 1011.9R S OF BLOCK IS 1043 63 N/A 2/ 6 $$ ......................KEY......................... SKY/WX - SKY CONDITION/PRESENT WEATHER TMP - TEMPERATURE IN FAHRENHEIT DWPT - DEWPOINT IN FAHRENHEIT RH - RELATIVE HUMIDITY IN PERCENT WIND - DIRECTION AND SPEED IN MPH PRES - MEAN SEA LEVEL PRESSURE IN INCHES OF HG WCI - WIND CHILL INDEX VSB - VISIBILITY IN MILES HX - HEAT INDEX TC - TEMPERATURE IN CELSIUS VRB - VARIABLE WIND DIRECTION N/A - NOT AVAILABLE

USA.gov is the U.S. government's official web portal to all federal, state and local government web resources and services.